Вернуться в каталог

SL-12 R/B

AUX MOTOR

АктивенHEO
NORAD 36407·ROCKET BODY·🇷🇺 Russia

Запущен Mar 1, 2010 с Baikonur Cosmodrome

Loading…

Ближайшие Пролёты (ближайшие 24 часа)

TLE

СвежийSource: Space-Track

Эпоха: Sep 7, 2026, 00:23 UTC

1 36407U 10007H   26250.01629979  .00000003  00000-0 -45077-3 0  9996
2 36407  65.3279 153.9872 5561344 264.3205  33.2516  4.25543054255878

Отслеживайте SL-12 R/B в реальном времени с AllMySat

Download on the App Store